Flag for U.S.A. Weather past 2 weeks in Rapid City, South Dakota, U.S.A.

Now
72 °F

Clear.


Feels Like: 77 °F
Forecast: 66 / 98 °F
Wind: 8 mph from South

Location: Ellsworth Air Force Base

Current Time: Aug 30, 2015 at 12:37:15 AM

Latest Report: Aug 29, 2015 at 11:58 PM


Visibility: 10 mi

Pressure: 29.81 "Hg (26.62 "Hg at 977m altitude)

Humidity: 40%

Dew point: 46 °F

Location of Rapid CityLocation

Historic Weather in Rapid City — Graph

°F

Rapid City temperature yesterday

Maximum temperature yesterday: 94 °F (at 2:58 PM)
Minimum temperature yesterday: 61 °F (at 3:58 AM)
Average temperature yesterday: 77 °F

Past Weeks' High & Low Weather Summary

 TemperatureHumidityPressure
High100 °F (Aug 15, 2:58 PM)100% (Aug 18, 12:03 AM)30.25 "Hg (Aug 18, 12:03 AM)
Low41 °F (Aug 23, 4:58 AM)12% (Aug 15, 5:58 PM)29.42 "Hg (Aug 22, 2:58 AM)
Average67 °F59%29.96 "Hg
* Reported Aug 14 10:58 PM — Aug 29 10:58 PM, Rapid City, Weather by CustomWeather, © 2015

Note: Actual official high and low records may vary slightly from our data, if they occured in-between our weather recording intervals... More about our weather records

Advertising

Rapid City weather history for previous 24 hours

 ConditionsComfort  
Time TempWeatherWind HumidityBarometerVisibility
10:58 PM
Sat, Aug 29
74 °FClear.5 mph38%29.83 "Hg10 mi
9:58 PM72 °FClear.3 mph43%29.85 "Hg10 mi
8:58 PM76 °FClear.5 mph39%29.86 "Hg10 mi
7:58 PM78 °FClear.9 mph37%29.86 "Hg10 mi
6:58 PM82 °FSunny.8 mph38%29.85 "Hg10 mi
5:58 PM89 °FSunny.9 mph30%29.85 "Hg10 mi
4:58 PM92 °FSunny.12 mph24%29.85 "Hg10 mi
3:58 PM94 °FSunny.16 mph22%29.88 "Hg10 mi
2:58 PM94 °FSunny.15 mph20%29.88 "Hg10 mi
1:58 PM94 °FSunny.14 mph23%29.90 "Hg10 mi
12:58 PM91 °FSunny.15 mph29%29.92 "Hg10 mi
11:58 AM86 °FSunny.8 mph43%29.96 "Hg10 mi
10:58 AM82 °FSunny.7 mph46%29.98 "Hg10 mi
9:58 AM77 °FSunny.3 mph47%29.99 "Hg10 mi
8:58 AM71 °FSunny.3 mph59%29.99 "Hg10 mi
7:58 AM64 °FSunny.2 mph66%29.99 "Hg10 mi
6:58 AM64 °FSunny.3 mph58%29.99 "Hg10 mi
5:58 AM62 °FClear.8 mph66%29.98 "Hg10 mi
4:58 AM63 °FClear.6 mph67%29.97 "Hg10 mi
3:58 AM61 °FClear.3 mph73%29.98 "Hg10 mi
2:58 AM64 °FClear.9 mph66%29.97 "Hg10 mi
12:58 AM65 °FClear.7 mph78%29.99 "Hg10 mi
Weather by CustomWeather, © 2015

See weather overviewHow to use our weather pages